This demonstration page uses our WeatherBlox Daily Observations layout. Learn more.

Left ArrowRight Arrow

38.89511, -77.03637

Hourly Observations for July 29, 2015

Temp ( °F °C ) Dew Point ( °F °C ) Humidity (%) Winds ( mph kmh ) Pressure ( in mb ) Visibility ( mi km ) Precip ( " mm )
12:52 am 00:52 Partly Cloudy 79 26.1 74 23.3 85 85 ESE 3 6 30.00 1016 10 16 N/A
1:52 am 01:52 Partly Cloudy 79 26.1 74 23.3 85 85 SSE 5 7 30.00 1016 10 16 N/A
2:52 am 02:52 Partly Cloudy 79 26.1 74 23.3 85 85 N N/A 29.99 1016 10 16 N/A
3:52 am 03:52 Partly Cloudy 79 26.1 74 23.3 85 85 SSE 5 7 29.98 1015 10 16 N/A
4:52 am 04:52 Partly Cloudy 78 25.6 74 23.3 87 87 SSW 5 7 29.98 1015 10 16 N/A
5:52 am 05:52 Mostly Cloudy 78 25.6 73 22.8 85 85 N N/A 30.00 1016 10 16 N/A
6:52 am 06:52 Mostly Cloudy 79 26.1 74 23.3 85 85 N N/A 29.99 1016 9 14 N/A
7:52 am 07:52 Mostly Cloudy 81 27.2 75 23.9 82 82 SSE 3 6 30.00 1016 9 14 N/A
8:52 am 08:52 Mostly Cloudy 82 27.8 75 23.9 79 79 S 6 9 30.02 1017 10 16 N/A
9:52 am 09:52 Mostly Cloudy 84 28.9 75 23.9 74 74 SSE 9 15 30.01 1016 10 16 N/A
10:52 am 10:52 Mostly Cloudy 86 30 76 24.4 72 72 SSE 8 13 30.01 1016 10 16 N/A
11:52 am 11:52 Mostly Cloudy 87 30.6 75 23.9 67 67 S 9 15 30.01 1016 10 16 N/A
12:13 pm 12:13 Mostly Cloudy 90 32 75 24 63 63 S 10 17 30.00 1016 10 16 N/A
12:52 pm 12:52 Mostly Cloudy 88 31.1 76 24.4 68 68 S 13 20 30.00 1016 10 16 N/A
1:52 pm 13:52 Mostly Cloudy 90 32.2 75 23.9 62 62 S 14 22 29.98 1015 10 16 N/A
2:52 pm 14:52 Mostly Cloudy 90 32.2 74 23.3 59 59 SSW 10 17 29.97 1015 10 16 N/A
3:52 pm 15:52 Mostly Cloudy 92 33.3 75 23.9 58 58 S 13 20 29.96 1015 10 16 N/A
4:52 pm 16:52 Mostly Cloudy 90 32.2 73 22.8 58 58 S 15 24 29.95 1014 10 16 N/A
5:52 pm 17:52 Mostly Cloudy 89 31.7 75 23.9 63 63 S 16 26 29.93 1014 10 16 N/A
6:52 pm 18:52 Mostly Cloudy 89 31.7 72 22.2 57 57 S 14 22 29.93 1014 10 16 N/A
7:52 pm 19:52 Mostly Cloudy 87 30.6 71 21.7 59 59 S 13 20 29.94 1014 10 16 N/A
8:52 pm 20:52 Partly Cloudy 86 30 71 21.7 61 61 SSW 10 17 29.95 1014 10 16 N/A
9:52 pm 21:52 Cloudy 84 28.9 72 22.2 67 67 SSW 9 15 29.97 1015 10 16 N/A
10:52 pm 22:52 Partly Cloudy 83 28.3 74 23.3 74 74 S 10 17 29.96 1015 10 16 N/A
11:52 pm 23:52 Mostly Cloudy 82 27.8 74 23.3 77 77 S 7 11 29.95 1014 10 16 N/A

Powered by AerisWeather